Location: Falconara Alta
(43.6167°N, 13.4000°E)
Time: 10:03:35
(UTC+00:00)

Iridium 4 Rocket - Pass Details

Date: 09 April 2020
Orbit: 586 x 903 km, 86.9° (Epoch: 04 June)

Event Time Altitude Azimuth Distance (km) Brightness Sun altitude
Rises 19:53:04 0° 359° (N) 2,844 7.0 -22.2°
Reaches altitude 10° 19:55:17 10° 2° (N) 1,925 6.0 -22.5°
Enters shadow 19:59:08 67° 51° (NE) 639 2.9 -23.1°
